Naples, FL

5:41 PM EDT on June 24, 2017 (GMT -0400)
Naples Municipal

Weather History for KAPF - March, 2012

Change the Weather History Date:

Thursday, March 8, 2012

  Actual Average Record
Temperature  
Mean Temperature 75 °F 69 °F  
Max Temperature 84 °F 79 °F 90 °F (1974)
Min Temperature 65 °F 59 °F 38 °F (1962)
Degree Days  
Heating Degree Days 0 1  
Month to date heating degree days 2 8  
Since 1 July heating degree days 121 241  
Cooling Degree Days 10 5  
Month to date cooling degree days 52 40  
Year to date cooling degree days 326 231  
Growing Degree Days 24 (Base 50)    
Moisture  
Dew Point 66 °F    
Average Humidity 76    
Maximum Humidity 93    
Minimum Humidity 58    
Precipitation  
Precipitation T in 0.07 in 4.84 in (1970)
Month to date precipitation 0.10 0.54  
Year to date precipitation 3.48 4.49  
Snow  
Snow 0.00 in - - ()
Month to date snowfall 0.0  
Since 1 July snowfall 0.0  
Snow Depth 0.00 in    
Sea Level Pressure  
Sea Level Pressure 30.20 in    
Wind  
Wind Speed 9 mph (ENE)    
Max Wind Speed 20 mph    
Max Gust Speed 24 mph    
Visibility 9 miles    
Events Rain    
T = Trace of Precipitation, MM = Missing Value Source: NWS Daily Summary

Daily Weather History Graph

Daily Weather History Graph

Search for Another Location

Airport or City:

Trip Planner

Search our weather history database for the weather conditions in past years. The results will help you decide how hot, cold, wet, or windy it might be!

Date:

Astronomy

Mar. 08, 2012 Rise Set
Actual Time 6:43 AM EST 6:32 PM EST
Civil Twilight 6:20 AM EST 6:55 PM EST
Nautical Twilight 5:53 AM EST 7:22 PM EST
Astronomical Twilight 5:26 AM EST 7:49 PM EST
Moon 7:08 PM EST (3/8) 6:33 AM EST (3/8)
Length of Visible Light 12h 35m
Length of Day
11h 49m
Full, 100% of the Moon is Illuminated
Mar 8
Full
Mar 14
Last Quarter
Mar 22
New
Mar 30
First Quarter
Apr 6
Full

Hourly Weather History & Observations

Time (EST) Temp. Heat Index Dew Point Humidity Pressure Visibility Wind Dir Wind Speed Gust Speed Precip Events Conditions
12:53 AM 69.8 °F - 64.4 °F 83% 30.24 in 10.0 mi East 9.2 mph - N/A   Clear
1:53 AM 68.0 °F - 64.9 °F 90% 30.22 in 10.0 mi ENE 6.9 mph - N/A   Partly Cloudy
2:09 AM 66.2 °F - 64.4 °F 94% 30.22 in 9.0 mi ENE 4.6 mph - N/A   Mostly Cloudy
2:53 AM 66.9 °F - 64.0 °F 90% 30.21 in 8.0 mi NE 5.8 mph - N/A   Overcast
3:40 AM 66.2 °F - 64.4 °F 94% 30.20 in 7.0 mi ENE 5.8 mph - N/A   Partly Cloudy
3:53 AM 66.0 °F - 64.0 °F 93% 30.19 in 7.0 mi ENE 5.8 mph - N/A   Partly Cloudy
4:14 AM 66.2 °F - 64.4 °F 94% 30.20 in 7.0 mi ENE 5.8 mph - N/A   Mostly Cloudy
4:53 AM 66.0 °F - 64.0 °F 93% 30.20 in 7.0 mi ENE 5.8 mph - N/A   Mostly Cloudy
5:11 AM 66.2 °F - 64.4 °F 94% 30.20 in 7.0 mi ENE 5.8 mph - N/A   Scattered Clouds
5:53 AM 66.0 °F - 64.0 °F 93% 30.21 in 7.0 mi ENE 6.9 mph - N/A   Partly Cloudy
6:53 AM 66.0 °F - 64.0 °F 93% 30.22 in 7.0 mi ENE 6.9 mph - N/A   Clear
7:53 AM 70.0 °F - 66.0 °F 87% 30.23 in 9.0 mi ENE 9.2 mph - N/A   Clear
8:53 AM 73.9 °F - 66.0 °F 76% 30.24 in 10.0 mi East 12.7 mph - N/A   Clear
9:53 AM 77.0 °F - 66.0 °F 69% 30.24 in 10.0 mi East 13.8 mph - N/A   Mostly Cloudy
10:00 AM 75.2 °F - 66.2 °F 73% 30.24 in 10.0 mi East 12.7 mph 21.9 mph N/A   Scattered Clouds
10:17 AM 77.0 °F - 66.2 °F 69% 30.25 in 10.0 mi East 15.0 mph - N/A   Mostly Cloudy
10:37 AM 78.8 °F - 66.2 °F 65% 30.25 in 10.0 mi East 11.5 mph - N/A   Scattered Clouds
10:53 AM 79.0 °F - 66.0 °F 64% 30.25 in 10.0 mi East 11.5 mph - N/A   Mostly Cloudy
11:53 AM 81.0 °F 82.7 °F 64.9 °F 58% 30.22 in 10.0 mi East 13.8 mph - N/A   Scattered Clouds
12:53 PM 81.0 °F 82.7 °F 64.9 °F 58% 30.19 in 10.0 mi East 9.2 mph - N/A   Mostly Cloudy
1:53 PM 81.0 °F 83.3 °F 66.9 °F 62% 30.16 in 10.0 mi ENE 16.1 mph - N/A   Mostly Cloudy
2:53 PM 82.0 °F 84.1 °F 66.0 °F 58% 30.14 in 10.0 mi ENE 16.1 mph - N/A   Mostly Cloudy
3:53 PM 81.0 °F 83.0 °F 66.0 °F 60% 30.13 in 10.0 mi East 10.4 mph - N/A   Scattered Clouds
4:53 PM 75.0 °F - 68.0 °F 79% 30.14 in 8.0 mi South 9.2 mph 23.0 mph 0.00 in Rain Light Rain
5:09 PM 73.4 °F - 69.8 °F 88% 30.14 in 10.0 mi SSE 9.2 mph - 0.00 in   Overcast
5:16 PM 73.4 °F - 69.8 °F 88% 30.14 in 10.0 mi South 5.8 mph - 0.00 in   Overcast
5:53 PM 72.0 °F - 69.1 °F 91% 30.15 in 10.0 mi Variable 3.5 mph - 0.00 in   Mostly Cloudy
6:53 PM 73.0 °F - 69.1 °F 87% 30.16 in 10.0 mi Calm Calm - N/A   Overcast
7:53 PM 73.9 °F - 66.9 °F 79% 30.17 in 10.0 mi ENE 6.9 mph - N/A   Overcast
8:53 PM 73.0 °F - 66.0 °F 79% 30.19 in 10.0 mi East 10.4 mph - N/A   Overcast
9:53 PM 71.1 °F - 66.9 °F 87% 30.19 in 10.0 mi NE 5.8 mph - N/A   Clear
10:53 PM 69.1 °F - 66.9 °F 93% 30.19 in 10.0 mi NE 5.8 mph - N/A   Clear
11:53 PM 68.0 °F - 66.0 °F 93% 30.17 in 10.0 mi ENE 6.9 mph - N/A   Clear